This is the latest recevied weather packets stored in our database for station/object DM4XI-13. If no packets are shown the sender has not sent any weather packets the latest 1 day(s).
| Time | Temp. | Humidity | Pressure | Rain* | Wind** | Luminosity | Snow |
|---|---|---|---|---|---|---|---|
| 1778054994 | 15.56° C | 68% | 1005.5 hPa | 0 mm | 0 m/s | 172 W/m² | - |
| 1778054872 | 15.56° C | 68% | 1005.3 hPa | 0 mm | 0.89 m/s, 173° | 173 W/m² | - |
| 1778054811 | 15.56° C | 70% | 1005.2 hPa | 0 mm | 0 m/s | 183 W/m² | - |
| 1778054689 | 15.56° C | 72% | 1005.2 hPa | 0 mm | 0 m/s | 195 W/m² | - |
| 1778054567 | 15.56° C | 70% | 1005.2 hPa | 0 mm | 0.89 m/s, 203° | 178 W/m² | - |
| 1778054506 | 15.56° C | 72% | 1005.2 hPa | 0 mm | 0.45 m/s, 222° | 171 W/m² | - |
| 1778054445 | 15.56° C | 71% | 1005.2 hPa | 0 mm | 0 m/s | 171 W/m² | - |
| 1778054384 | 15.56° C | 71% | 1005.2 hPa | 0 mm | 0.89 m/s, 189° | 173 W/m² | - |
| 1778054262 | 16.11° C | 73% | 1005.2 hPa | 0 mm | 0.45 m/s, 178° | 201 W/m² | - |
| 1778054201 | 16.11° C | 72% | 1005.2 hPa | 0 mm | 0.89 m/s, 194° | 182 W/m² | - |
| 1778054140 | 16.67° C | 71% | 1005.2 hPa | 0 mm | 0.45 m/s, 177° | 184 W/m² | - |
| 1778054079 | 16.67° C | 69% | 1005.1 hPa | 0 mm | 0.45 m/s, 174° | 182 W/m² | - |
| 1778054018 | 16.67° C | 69% | 1005.1 hPa | 0 mm | 0.89 m/s, 183° | 179 W/m² | - |
| 1778053957 | 16.67° C | 70% | 1005.2 hPa | 0 mm | 0.89 m/s, 159° | 175 W/m² | - |
| 1778053896 | 16.67° C | 70% | 1005.3 hPa | 0 mm | 0 m/s | 177 W/m² | - |
| 1778053835 | 16.67° C | 70% | 1005.3 hPa | 0 mm | 0 m/s | 164 W/m² | - |
| 1778053774 | 16.67° C | 71% | 1005.3 hPa | 0 mm | 0 m/s | 231 W/m² | - |
| 1778053713 | 16.67° C | 70% | 1005.2 hPa | 0 mm | 0.45 m/s, 134° | 245 W/m² | - |
| 1778053652 | 16.67° C | 71% | 1005.2 hPa | 0 mm | 0 m/s | 357 W/m² | - |
| 1778053408 | 16.67° C | 68% | 1005.3 hPa | 0 mm | 0.89 m/s, 145° | 168 W/m² | - |
| 1778053347 | 16.67° C | 69% | 1005.1 hPa | 0 mm | 0 m/s | 171 W/m² | - |
| 1778053255 | 16.11° C | 71% | 1005.3 hPa | 0 mm | 0 m/s | 183 W/m² | - |
| 1778053194 | 16.11° C | 70% | 1005.3 hPa | 0 mm | 0 m/s | 208 W/m² | - |
| 1778053072 | 15.56° C | 70% | 1005.2 hPa | 0 mm | 0.45 m/s, 108° | 462 W/m² | - |
| 1778053011 | 15.56° C | 71% | 1005.1 hPa | 0 mm | 0 m/s | 510 W/m² | - |
* Rain latest hour (hover to see other rain measurements)
** Current wind speed in m/s (hover to see current wind gust speed)